Home   Weather   Pori   Past weeks

Flag for Finland Past Weather in Pori, Finland — Yesterday and Last 2 Weeks

Now
32 °F

Low clouds.


Feels Like: 23 °F
Forecast: 20 / 31 °F
Wind: 12 mph from Southwest

Location: Pori Airport

Current Time: Jan 23, 2017 at 8:50:59 am

Latest Report: Jan 23, 2017 at 8:20 am


Visibility: N/A

Pressure: 29.77 "Hg

Humidity: 100%

Dew Point: 32 °F

Location of PoriLocation

Past Weather in Pori — Graph

°F

Pori Temperature Yesterday

Maximum temperature yesterday: 41 °F (at 1:20 am)
Minimum temperature yesterday: 30 °F (at 7:50 pm)
Average temperature yesterday: 37 °F

High & Low Weather Summary for the Past Weeks

 TemperatureHumidityPressure
High41 °F (Jan 19, 6:20 pm)100% (Jan 8, 10:20 am)30.36 "Hg (Jan 8, 10:20 am)
Low9 °F (Jan 15, 9:20 am)56% (Jan 19, 8:50 pm)28.88 "Hg (Jan 12, 6:50 am)
Average31 °F89%29.79 "Hg
* Reported Jan 8 7:20 am — Jan 23 7:20 am, Pori, Weather by CustomWeather, © 2017

Note: Actual official high and low records may vary slightly from our data, if they occured in-between our weather recording intervals... More about our weather records

Advertising

Pori Weather History for the Previous 24 Hours

Scroll right to see more
 ConditionsComfort  
Time TempWeatherWind HumidityBarometerVisibility
7:20 am
Mon, Jan 23
34 °FLow clouds.7 mph87%29.80 "HgN/A
6:50 am32 °FLow clouds.10 mph100%29.80 "HgN/A
6:20 am32 °FLow clouds.8 mph100%29.80 "HgN/A
5:50 am32 °FLow clouds.8 mph100%29.83 "HgN/A
5:20 am32 °FLow clouds.12 mph100%29.83 "HgN/A
4:50 am32 °FLow clouds.12 mph100%29.83 "HgN/A
4:20 am32 °FLow clouds.9 mph100%29.86 "HgN/A
3:50 am32 °FLow clouds.12 mph100%29.86 "HgN/A
3:20 am34 °FLow clouds.12 mph93%29.86 "HgN/A
2:50 am34 °FLow clouds.12 mph93%29.86 "HgN/A
2:20 am34 °FLow clouds.8 mph93%29.89 "HgN/A
1:50 am34 °FLow clouds.8 mph93%29.89 "HgN/A
1:20 am34 °FLow clouds.7 mph93%29.89 "HgN/A
12:50 am34 °FPassing clouds.3 mph93%29.89 "HgN/A
12:20 am34 °FPassing clouds.5 mph93%29.92 "HgN/A
11:50 pm
Sun, Jan 22
30 °FClear.1 mph93%29.92 "Hg10 mi
11:20 pm34 °FClear.5 mph93%29.92 "Hg10 mi
10:50 pm34 °FClear.2 mph93%29.92 "Hg10 mi
10:20 pm36 °FClear.8 mph93%29.92 "Hg10 mi
9:50 pm36 °FClear.10 mph87%29.92 "Hg10 mi
9:20 pm36 °FClear.6 mph87%29.95 "Hg10 mi
8:50 pm34 °FClear.6 mph93%29.95 "Hg10 mi
8:20 pm30 °FClear.5 mph100%29.95 "Hg10 mi
7:50 pm30 °FClear.2 mph93%29.95 "Hg10 mi
7:20 pm32 °FPassing clouds.3 mph93%29.98 "HgN/A
6:50 pm34 °FClear.1 mph93%29.98 "Hg10 mi
6:20 pm36 °FPassing clouds.6 mph87%29.98 "HgN/A
5:50 pm36 °FPassing clouds.5 mph87%29.98 "HgN/A
5:20 pm36 °FPassing clouds.5 mph93%29.98 "HgN/A
4:50 pm36 °FPassing clouds.3 mph93%29.98 "HgN/A
4:20 pm37 °FClear.10 mph87%29.98 "Hg10 mi
3:50 pm37 °FSunny.9 mph87%29.98 "Hg10 mi
3:20 pm37 °FSunny.9 mph87%29.98 "Hg10 mi
2:50 pm39 °FSunny.10 mph81%30.01 "Hg10 mi
2:20 pm39 °FSunny.10 mph81%30.01 "Hg10 mi
1:50 pm39 °FSunny.7 mph81%30.01 "Hg10 mi
1:20 pm41 °FSunny.8 mph76%30.01 "Hg10 mi
12:50 pm39 °FSunny.8 mph81%30.01 "Hg10 mi
12:20 pm39 °FSunny.7 mph81%30.04 "Hg10 mi
11:50 am39 °FSunny.8 mph81%30.04 "Hg10 mi
11:20 am37 °FSunny.7 mph87%30.04 "Hg10 mi
10:50 am36 °FSunny.6 mph93%30.04 "Hg10 mi
10:20 am36 °FSunny.1 mph87%30.04 "Hg10 mi
9:50 am36 °FPassing clouds.5 mph93%30.04 "HgN/A
9:20 am36 °FSunny.7 mph93%30.04 "Hg10 mi
8:50 am37 °FClear.9 mph87%30.07 "Hg10 mi
8:20 am37 °FClear.7 mph87%30.04 "Hg10 mi
Weather by CustomWeather, © 2017

See weather overviewHow to use our weather pages